Location: Castillon
(43.0896°N, 0.2156°E)
Time: 00:42:17
(UTC+00:00)

Cosmos 1758 - Pass Details

Date: 16 June 2021
Orbit: 539 x 561 km, 82.5° (Epoch: 04 August)

Event Time Altitude Azimuth Distance (km) Brightness Sun altitude
Rises 20:39:22 0° 355° (N) 2,715 7.7 -9.1°
Reaches altitude 10° 20:41:34 10° 360° (N) 1,815 6.7 -9.4°
Maximum altitude 20:45:30 58° 80° (E) 635 3.4 -9.9°
Enters shadow 20:48:59 13° 158° (SSE) 1,632 5.2 -10.3°
